[[{"header":{"parameterUnit":"m.s-1","parameterCategory":1,"la1":30.2991,"la2":30.254,"lo1":-89.0895,"lo2":-89.0444,"dx":0.0017,"dy":0.0017,"nx":28,"ny":28,"refTime":"2022-11-15T15:00:00:Z","depth":0,"parameterNumber":2,"parameterNumberName":"U-component_of_WINDS"},"data":[0,0,0,0,0,0,0,0,0,0,0,0,0,0,0,0,0,0,0,0,0,0,0,0,0,0,0,0,0,0,0,0,0,0,0,0,0,0,0,0,0,0,0,0,0,0,0,0,0,0,0,0,0,0,0,0,0,0,2.5384,2.5385,0,2.5469,2.547,2.5471,2.5478,2.5477,2.5476,2.5475,2.556,2.5563,2.5567,0,0,0,0,0,0,0,0,0,0,0,0,0,2.5226,2.5229,2.5384,2.5385,2.5386,2.5469,2.547,2.5471,2.5478,2.5477,2.5476,2.5475,2.5559,2.5563,2.5567,0,0,0,0,0,0,0,0,0,0,0,0,0,2.5301,2.523,2.5383,2.5399,2.5401,2.5469,2.547,2.5472,2.5478,2.5477,2.5475,2.5474,2.5558,2.5563,2.5567,2.5624,0,0,2.5582,2.5584,0,0,0,0,0,0,0,0,2.5297,2.5307,2.5396,2.5398,2.5401,2.5461,2.5446,2.5523,2.5478,2.5449,2.5475,2.5473,2.5528,2.5535,2.5554,2.5628,2.5632,2.5582,2.5585,2.5587,2.5588,0,0,0,0,0,0,0,2.5292,2.5304,2.5417,2.5397,2.54,2.5402,2.5411,2.5461,2.5495,2.5451,2.5452,2.5462,2.553,2.555,2.5557,2.5633,2.5582,2.5586,2.5589,2.5591,2.5761,2.5762,0,0,0,0,0,0,2.5284,2.5299,2.5415,2.542,2.5345,2.5406,2.5416,2.5443,2.5495,2.5501,2.5463,2.5462,2.5543,2.5551,2.556,2.5631,2.5587,2.5591,2.5594,2.5759,2.5761,2.5763,0,0,0,0,0,0,2.5281,2.5294,2.5411,2.536,2.5375,2.541,2.5441,2.5446,2.5466,2.5504,2.551,2.5478,2.5542,2.5553,2.5609,2.5634,2.5593,2.5598,2.5757,2.576,2.5762,2.5774,0,0,0,0,0,0,2.5276,2.5293,2.5315,2.536,2.5378,2.5459,2.5442,2.5448,2.5475,2.5474,2.5519,2.5525,2.5542,2.5602,2.5614,2.564,2.5601,2.5755,2.5758,2.5761,2.5771,2.5777,2.5781,0,0,0,0,0,2.527,2.5313,2.5316,2.533,2.5406,2.546,2.547,2.5489,2.5476,2.5499,2.5524,2.5524,2.563,2.5608,2.5621,2.5649,2.5754,2.5757,2.5761,2.5769,2.5776,2.5781,0,0,0,0,0,0,2.5268,2.532,2.5323,2.5382,2.5417,2.5461,2.549,2.5494,2.5533,2.5531,2.5552,2.5562,2.5618,2.5639,2.5613,2.5708,2.569,2.5697,2.5692,2.5698,2.5703,2.5697,2.5605,0,0,0,0,0,2.5275,2.5315,2.5358,2.5406,2.5424,2.5454,2.5479,2.549,2.5527,2.5542,2.557,2.5606,2.5648,2.5674,2.5714,2.5775,2.5786,2.5801,2.5806,2.581,2.5815,2.5851,2.5859,2.5776,2.5776,2.5775,0,0,2.5288,2.5322,2.5346,2.5407,2.5435,2.5477,2.5466,2.551,2.5542,2.5548,2.5603,2.5626,2.5667,2.5726,2.5754,2.5746,2.5841,2.5815,2.5817,2.5821,2.5856,2.5864,2.5871,2.5778,2.5778,2.5777,0,0,2.5335,2.5364,2.5408,2.5438,2.5482,2.5502,2.5513,2.5558,2.5573,2.5629,2.5636,2.5674,2.5744,2.5774,2.5798,2.586,2.5862,2.5872,2.5897,2.5932,2.5938,2.5944,2.5967,2.5975,2.5878,2.5878,2.5878,0,2.5346,2.5409,2.543,2.5475,2.5502,2.5512,2.5558,2.5585,2.564,2.5658,2.5649,2.574,2.5768,2.5836,2.5851,2.587,2.5884,2.5867,2.5936,2.5942,2.5948,2.597,2.5979,2.5879,2.5879,2.5879,2.5878,0,2.5422,2.5466,2.5496,2.5551,2.5582,2.5626,2.5654,2.5683,2.5693,2.5715,2.5773,2.5808,2.5856,2.5873,2.5882,2.5943,2.5937,2.5932,2.5914,2.5957,2.5978,2.5987,2.588,2.588,2.588,2.5879,0,0,2.5467,2.5534,2.5545,2.5571,2.5622,2.5656,2.5703,2.5752,2.5777,2.5815,2.5855,2.5916,2.5912,2.594,2.5953,2.5984,2.6032,2.5975,2.5976,2.5985,2.6103,2.6107,2.6116,2.6035,2.6036,2.6038,2.61,0,2.5519,2.5602,2.5624,2.5694,2.5737,2.5748,2.5789,2.5824,2.5847,2.5886,2.591,2.5954,2.5945,2.5962,2.5993,2.602,2.6056,2.6016,2.6072,2.6074,2.6062,2.6127,2.6131,2.6188,2.6108,2.611,2.6111,0,2.5591,2.5633,2.5708,2.5756,2.5775,2.5811,2.5858,2.5896,2.5937,2.5952,2.5984,2.5995,2.6045,2.6026,2.6095,2.6067,2.6092,2.6109,2.6112,2.6117,2.6095,2.6135,2.6206,2.6215,2.6124,2.6123,2.6122,0,2.5618,2.5692,2.5748,2.577,2.5826,2.5852,2.5877,2.5918,2.5946,2.5988,2.6008,2.6054,2.608,2.6116,2.614,2.6124,2.6208,2.619,2.6222,2.6221,2.6238,2.6237,2.6315,2.6254,2.6254,2.6254,2.6254,0,2.5674,2.572,2.5761,2.5795,2.5847,2.5872,2.5924,2.5949,2.5986,2.6025,2.6038,2.6075,2.6104,2.6145,2.6164,2.622,2.6231,2.6244,2.6249,2.6243,2.6242,2.6259,2.6256,2.6256,2.6256,2.6255,2.6255,0,2.5712,2.5741,2.5803,2.5853,2.5867,2.5903,2.5946,2.598,2.6004,2.6054,2.6068,2.6105,2.6154,2.6182,2.6244,2.6257,2.6319,2.6321,2.6305,2.6307,2.6338,2.6335,2.643,2.6444,2.6373,2.6374,2.6374,0,2.5746,2.5782,2.5837,2.5865,2.5891,2.5935,2.5966,2.5992,2.6023,2.6076,2.6104,2.6154,2.6196,2.6275,2.6308,2.6356,2.636,2.639,2.6367,2.6361,2.6361,2.6359,2.6363,2.6394,2.6394,2.6395,2.6395,0,2.5803,2.5817,2.586,2.591,2.5946,2.5986,2.6025,2.6048,2.6081,2.6116,2.6168,2.62,2.6265,2.6316,2.6367,2.6393,2.64,2.6403,2.6413,2.6407,2.6397,2.6404,2.6316,2.64,2.6399,2.6399,2.6399,2.6399,2.5841,2.5874,2.5919,2.5968,2.6001,2.6038,2.6074,2.6103,2.6147,2.6202,2.6215,2.627,2.6314,2.6384,2.6412,2.6455,2.645,2.6464,2.6467,2.6471,2.6472,2.639,2.6465,2.6464,2.6464,2.6464,2.6464,0,2.59,2.593,2.5975,2.6031,2.607,2.6075,2.6119,2.6152,2.62,2.624,2.6282,2.6343,2.6393,2.6431,2.6482,2.651,2.6515,2.6523,2.6521,2.6527,2.6474,2.646,2.6518,2.6518,2.6518,2.6518,2.6518,2.6518,2.5935,2.5993,2.6012,2.6087,2.6117,2.6171,2.6197,2.6232,2.6265,2.6332,2.6374,2.6399,2.6439,2.6494,2.6541,2.6551,2.6569,2.6577,2.6587,2.6536,2.6531,2.6525,2.6513,2.6581,2.6581,2.6637,2.6638,2.6638]},{"header":{"parameterUnit":"m.s-1","parameterCategory":1,"la1":30.2991,"la2":30.254,"lo1":-89.0895,"lo2":-89.0444,"dx":0.0017,"dy":0.0017,"nx":28,"ny":28,"refTime":"2022-11-15T15:00:00:Z","depth":0,"parameterNumber":3,"parameterNumberName":"V-component_of_WINDS"},"data":[0,0,0,0,0,0,0,0,0,0,0,0,0,0,0,0,0,0,0,0,0,0,0,0,0,0,0,0,0,0,0,0,0,0,0,0,0,0,0,0,0,0,0,0,0,0,0,0,0,0,0,0,0,0,0,0,0,0,-7.0575,-7.0576,0,-7.0692,-7.0694,-7.0695,-7.0651,-7.0648,-7.0646,-7.0643,-7.0757,-7.0763,-7.0768,0,0,0,0,0,0,0,0,0,0,0,0,0,-7.0309,-7.0314,-7.0575,-7.0576,-7.0578,-7.0692,-7.0694,-7.0695,-7.0651,-7.0648,-7.0645,-7.0642,-7.0755,-7.0762,-7.0769,0,0,0,0,0,0,0,0,0,0,0,0,0,-7.0425,-7.0315,-7.0575,-7.057,-7.0571,-7.0692,-7.0694,-7.0696,-7.0652,-7.0648,-7.0644,-7.064,-7.0753,-7.0761,-7.0769,-7.09,0,0,-7.0795,-7.0798,0,0,0,0,0,0,0,0,-7.0418,-7.0435,-7.0569,-7.057,-7.0572,-7.0653,-7.0642,-7.0764,-7.0653,-7.0621,-7.0643,-7.0639,-7.0725,-7.0736,-7.0766,-7.0906,-7.0911,-7.0796,-7.0801,-7.0804,-7.0806,0,0,0,0,0,0,0,-7.041,-7.0429,-7.0621,-7.0571,-7.0573,-7.056,-7.0573,-7.0665,-7.0694,-7.0624,-7.0621,-7.0635,-7.0725,-7.0758,-7.0769,-7.0912,-7.0795,-7.0803,-7.0808,-7.0811,-7.1166,-7.117,0,0,0,0,0,0,-7.0402,-7.0423,-7.0617,-7.0625,-7.0484,-7.0569,-7.0582,-7.0631,-7.0693,-7.0699,-7.0639,-7.0633,-7.0746,-7.0759,-7.0772,-7.093,-7.0804,-7.0812,-7.0817,-7.1161,-7.1167,-7.1172,0,0,0,0,0,0,-7.0397,-7.042,-7.0613,-7.0523,-7.0547,-7.0577,-7.0632,-7.0635,-7.0668,-7.0705,-7.0709,-7.0668,-7.0744,-7.0761,-7.087,-7.0934,-7.0815,-7.0823,-7.1156,-7.1163,-7.1169,-7.1247,0,0,0,0,0,0,-7.0389,-7.0418,-7.0469,-7.0525,-7.0552,-7.0709,-7.0636,-7.064,-7.0684,-7.0677,-7.0733,-7.0738,-7.0742,-7.0858,-7.0878,-7.0943,-7.0829,-7.115,-7.1159,-7.1167,-7.1239,-7.1255,-7.127,0,0,0,0,0,-7.038,-7.0485,-7.0472,-7.0496,-7.0616,-7.0713,-7.0728,-7.0732,-7.0689,-7.074,-7.0763,-7.0736,-7.0924,-7.0869,-7.0891,-7.096,-7.1146,-7.1157,-7.1166,-7.1232,-7.1252,-7.1269,0,0,0,0,0,0,-7.0434,-7.0492,-7.0478,-7.0605,-7.0655,-7.0706,-7.077,-7.0754,-7.0815,-7.0806,-7.0807,-7.082,-7.0932,-7.0957,-7.0895,-7.109,-7.1028,-7.1043,-7.107,-7.109,-7.1105,-7.1096,-7.0836,0,0,0,0,0,-7.0461,-7.0536,-7.0582,-7.0689,-7.0715,-7.0739,-7.0781,-7.078,-7.0831,-7.0851,-7.0882,-7.0931,-7.1001,-7.1047,-7.1113,-7.1242,-7.1254,-7.1301,-7.1316,-7.1329,-7.1341,-7.1412,-7.1433,-7.1205,-7.1204,-7.1204,0,0,-7.0516,-7.0558,-7.0605,-7.0701,-7.074,-7.0817,-7.0756,-7.084,-7.0897,-7.0863,-7.0968,-7.0993,-7.1047,-7.1168,-7.1222,-7.1192,-7.1407,-7.1342,-7.1351,-7.1357,-7.1425,-7.1446,-7.1465,-7.1211,-7.121,-7.1209,0,0,-7.0657,-7.0696,-7.079,-7.0831,-7.0891,-7.0906,-7.0929,-7.0983,-7.0999,-7.1106,-7.1082,-7.1149,-7.1269,-7.1309,-7.1345,-7.1504,-7.1482,-7.1526,-7.1606,-7.1675,-7.1693,-7.1709,-7.1766,-7.1786,-7.1538,-7.1538,-7.1539,0,-7.0718,-7.0835,-7.084,-7.0927,-7.0969,-7.0946,-7.104,-7.1079,-7.1157,-7.1186,-7.1152,-7.1304,-7.1339,-7.1468,-7.1507,-7.1537,-7.1562,-7.1519,-7.169,-7.1707,-7.1721,-7.1775,-7.1797,-7.1543,-7.1543,-7.1542,-7.1542,0,-7.0907,-7.0988,-7.1056,-7.1135,-7.1186,-7.1276,-7.1294,-7.1345,-7.134,-7.1358,-7.1467,-7.1509,-7.1583,-7.1614,-7.1609,-7.1743,-7.1723,-7.169,-7.1627,-7.1748,-7.1799,-7.1819,-7.1551,-7.1549,-7.1547,-7.1546,0,0,-7.1082,-7.1165,-7.119,-7.1226,-7.1292,-7.1354,-7.1443,-7.1519,-7.1562,-7.1617,-7.1691,-7.1795,-7.1766,-7.1807,-7.1806,-7.1867,-7.199,-7.1826,-7.1828,-7.1855,-7.2141,-7.2165,-7.2189,-7.1976,-7.198,-7.1983,-7.2136,0,-7.1228,-7.1387,-7.1395,-7.1538,-7.1613,-7.1593,-7.167,-7.1718,-7.1739,-7.1804,-7.1825,-7.1899,-7.1855,-7.188,-7.1939,-7.1963,-7.2047,-7.1952,-7.2044,-7.2047,-7.203,-7.2215,-7.2241,-7.2382,-7.2156,-7.2159,-7.2162,0,-7.1419,-7.1483,-7.1635,-7.1692,-7.1723,-7.1793,-7.1864,-7.1927,-7.1981,-7.1992,-7.2039,-7.2031,-7.212,-7.2056,-7.218,-7.2115,-7.2153,-7.217,-7.2176,-7.2184,-7.2111,-7.2227,-7.2428,-7.2449,-7.2193,-7.219,-7.2188,0,-7.1532,-7.1656,-7.1763,-7.1795,-7.1863,-7.1913,-7.1944,-7.1994,-7.204,-7.2101,-7.213,-7.22,-7.2238,-7.2292,-7.2302,-7.2255,-7.2426,-7.2362,-7.2436,-7.2436,-7.2472,-7.247,-7.2681,-7.2498,-7.2498,-7.2498,-7.2497,0,-7.1694,-7.1787,-7.1815,-7.1881,-7.1985,-7.1994,-7.2096,-7.2123,-7.2168,-7.2238,-7.2224,-7.2289,-7.2299,-7.2366,-7.2375,-7.2476,-7.2493,-7.2503,-7.2504,-7.2504,-7.2503,-7.2528,-7.2518,-7.2503,-7.2502,-7.2501,-7.25,0,-7.1837,-7.1859,-7.1975,-7.2032,-7.2048,-7.2123,-7.2171,-7.2233,-7.2253,-7.2341,-7.2362,-7.2392,-7.2471,-7.2487,-7.2579,-7.2585,-7.2705,-7.2697,-7.2688,-7.2687,-7.276,-7.2752,-7.2994,-7.3026,-7.2823,-7.2825,-7.2826,0,-7.1938,-7.201,-7.2076,-7.2123,-7.2157,-7.2232,-7.2279,-7.2291,-7.234,-7.2408,-7.2463,-7.2541,-7.2603,-7.273,-7.2759,-7.2829,-7.2822,-7.2902,-7.2832,-7.2831,-7.2823,-7.2818,-7.2825,-7.2915,-7.2917,-7.2919,-7.292,0,-7.2115,-7.2124,-7.2193,-7.2268,-7.2326,-7.2384,-7.244,-7.2479,-7.2497,-7.2553,-7.2636,-7.2685,-7.2781,-7.2858,-7.2929,-7.2959,-7.2943,-7.2942,-7.2963,-7.2963,-7.2955,-7.2961,-7.2724,-7.2936,-7.2935,-7.2933,-7.2933,-7.2932,-7.224,-7.2304,-7.2361,-7.2439,-7.2483,-7.2536,-7.2599,-7.2627,-7.2696,-7.2777,-7.2779,-7.2869,-7.2921,-7.3016,-7.3051,-7.3119,-7.3094,-7.3124,-7.3132,-7.3139,-7.3146,-7.2946,-7.3132,-7.3132,-7.3131,-7.3131,-7.3131,0,-7.2417,-7.2453,-7.2526,-7.2606,-7.2668,-7.265,-7.2711,-7.2764,-7.2843,-7.2895,-7.2959,-7.3053,-7.3128,-7.3164,-7.3238,-7.3287,-7.3281,-7.3306,-7.3302,-7.3309,-7.3164,-7.3139,-7.3309,-7.3309,-7.3309,-7.3309,-7.3309,-7.3309,-7.2516,-7.2623,-7.2638,-7.2767,-7.2802,-7.2892,-7.2928,-7.2977,-7.3018,-7.3125,-7.3189,-7.3213,-7.3258,-7.3336,-7.3404,-7.3413,-7.344,-7.3468,-7.3473,-7.3337,-7.3319,-7.3301,-7.3278,-7.3474,-7.3475,-7.3612,-7.3613,-7.3614]}]]